This is the latest recevied weather packets stored in our database for station/object N9CQS-15. If no packets are shown the sender has not sent any weather packets the latest 10 day(s).
| Time | Temp. | Humidity | Pressure | Rain* | Wind** | Luminosity | Snow |
|---|---|---|---|---|---|---|---|
| 1777479542 | 17.22° C | 58% | 1014.4 hPa | 0 mm | - | - | - |
| 1777478942 | 17.22° C | 57% | 1014.5 hPa | 0 mm | - | - | - |
| 1777478342 | 16.67° C | 58% | 1014.5 hPa | 0 mm | - | - | - |
| 1777477741 | 16.67° C | 59% | 1014.4 hPa | 0 mm | - | - | - |
| 1777477141 | 16.11° C | 60% | 1014.3 hPa | 0 mm | - | - | - |
| 1777476542 | 16.11° C | 62% | 1014.3 hPa | 0 mm | - | - | - |
| 1777475941 | 15° C | 61% | 1014.3 hPa | 0 mm | - | - | - |
| 1777475341 | 15° C | 60% | 1014.3 hPa | 0 mm | - | - | - |
| 1777474741 | 14.44° C | 61% | 1014.4 hPa | 0 mm | - | - | - |
| 1777474141 | 13.89° C | 63% | 1014.3 hPa | 0 mm | - | - | - |
| 1777473542 | 13.89° C | 63% | 1014.3 hPa | 0 mm | - | - | - |
| 1777472942 | 13.33° C | 67% | 1014.3 hPa | 0 mm | - | - | - |
| 1777472342 | 13.33° C | 68% | 1014.3 hPa | 0 mm | - | - | - |
| 1777471742 | 13.33° C | 68% | 1014.3 hPa | 0 mm | - | - | - |
| 1777471141 | 12.78° C | 68% | 1014.3 hPa | 0 mm | - | - | - |
| 1777470542 | 12.78° C | 70% | 1014.2 hPa | 0 mm | - | - | - |
| 1777469942 | 12.22° C | 71% | 1014.3 hPa | 0 mm | - | - | - |
| 1777469342 | 12.22° C | 73% | 1014.3 hPa | 0 mm | - | - | - |
| 1777468742 | 11.67° C | 74% | 1014.3 hPa | 0 mm | - | - | - |
| 1777468142 | 11.67° C | 75% | 1014.3 hPa | 0 mm | - | - | - |
| 1777467542 | 11.67° C | 76% | 1014.3 hPa | 0 mm | - | - | - |
| 1777466942 | 11.11° C | 78% | 1014.2 hPa | 0 mm | - | - | - |
| 1777466342 | 11.11° C | 81% | 1014.3 hPa | 0 mm | - | - | - |
| 1777465742 | 11.11° C | 84% | 1014.1 hPa | 0 mm | - | - | - |
| 1777465142 | 10.56° C | 86% | 1014.1 hPa | 0 mm | - | - | - |
* Rain latest hour (hover to see other rain measurements)
** Current wind speed in m/s (hover to see current wind gust speed)